sat.trackr.live / text

‹ back to catalog

STARLINK-2475

NORAD 48133 · 2021-027AT

PAYLOAD ACTIVE UNKNOWN

§ Identity

Operator
Country
US
Launch date
2021-04-07
Launch site
AFETR
Launch vehicle
Mass (kg)
RCS (m²)

Purposes: comms

External: N2YO · Heavens-Above · Gunter

§ Orbital elements

Epoch: 2026-05-25T01:24:26.319744Z

Period
94.01 min
Inclination
53.1577°
Eccentricity
0.0001215
Mean motion
15.31700313 rev/d
Perigee alt
469.9 km
Apogee alt
471.6 km
Semi-major
6,848.9 km
B*
4.1852e-5
RAAN
170.1978°
Arg perigee
82.2005°
Mean anomaly
277.9135°
Rev number
28,421

§ Raw data

STARLINK-24751 48133U 21027AT  26145.05863796  .00000934  00000+0  41852-4 0  99922 48133  53.1577 170.1978 0001215  82.2005 277.9135 15.31700313284213

JSON: /api/v1/satellites/48133 · /tle

For live sub-satellite position, see the globe view (requires WebGL).

§ Visibility from observer

Set your observer location to see the next 7 days of passes ≥ 10°. The values pass through the URL so the page stays shareable.

No JS? Fill the form by hand. The geolocation button needs JavaScript.